Regional Weather Roundup
Issued by NWS Charleston, WV

Home | Current Version | Previous Version | Graphics & Text | Print | Product List | Glossary On
Versions: 1 2 3 4 5 6 7 8 9 10 11 12 13 14 15 16 17 18 19 20 21 22 23 24 25 26 27 28 29 30 31 32 33 34 35 36 37 38 39 40 41 42 43 44 45 46 47 48 49 50
556
ASUS41 KRLX 221010
RWRRLX
West Virginia Regional Weather Roundup
National Weather Service Charleston WV
600 AM EDT MON MAY 22 2017

Note: "fair" indicates few or no clouds below 12,000 feet with no
significant weather and/or obstructions to visibility.

WVZ003-221100-
Northern Panhandle of West Virginia

CITY           SKY/WX    TMP DP  RH WIND       PRES   REMARKS
WHEELING       LGT RAIN  60  56  86 NW14G25   30.00R
$$

WVZ009-221100-
Northwest West Virginia

CITY           SKY/WX    TMP DP  RH WIND       PRES   REMARKS
PARKERSBURG    CLOUDY    66  62  87 NW12      30.05R
$$

WVZ006-221100-
Western West Virginia

CITY           SKY/WX    TMP DP  RH WIND       PRES   REMARKS
HUNTINGTON     CLOUDY    63  58  83 NW10      30.06R
$$

WVZ015-221100-
West Central West Virginia

CITY           SKY/WX    TMP DP  RH WIND       PRES   REMARKS
CHARLESTON     CLOUDY    64  61  90 W8        30.04R
$$

WVZ022-031-221100-
North Central West Virginia

CITY           SKY/WX    TMP DP  RH WIND       PRES   REMARKS
CLARKSBURG     LGT RAIN  62  58  86 CALM      30.01S
MORGANTOWN     HVY RAIN  65  56  72 VRB7      30.03R
$$

WVZ025-035-042-045-221100-
Southern West Virginia

CITY           SKY/WX    TMP DP  RH WIND       PRES   REMARKS
BECKLEY        CLOUDY    59  57  93 SE8       30.09S
LOGAN          CLOUDY    63  63 100 CALM      30.07R
BLUEFIELD      CLOUDY    57  56  96 CALM      30.12R
LEWISBURG      CLOUDY    57  56  99 CALM      30.10F FOG
$$

WVZ047-221100-
Northern Mountains of West Virginia

CITY           SKY/WX    TMP DP  RH WIND       PRES   REMARKS
ELKINS         CLOUDY    63  55  75 SE7       30.06S
$$

WVZ052-221100-
Eastern Panhandle of West Virginia

CITY           SKY/WX    TMP DP  RH WIND       PRES   REMARKS
MARTINSBURG    LGT RAIN  56  54  93 CALM      30.06F FOG
PETERSBURG     CLOUDY    59  57  92 CALM      30.06R FOG
$$




USA.gov is the U.S. government's official web portal to all federal, state and local government web resources and services.